W2EH Weather Reports


Display with metric or nautical units.
time (UTC)temp
F
wind
direction
speed
MPH
gust
MPH
rain 1hr
in
rain 24hr
in
rain mn
in
humidity
%
barometer
mb
20260906232234 94 178 0.0 2.0 0.00 0.00 0.00 45 1009.8
20260906231728 94 174 0.0 1.0 0.00 0.00 0.00 46 1009.6
20260906231224 94 168 1.0 3.0 0.00 0.00 0.00 46 1009.8
20260906230723 94 208 1.0 4.0 0.00 0.00 0.00 45 1009.9
20260906230218 94 155 2.0 2.0 0.00 0.00 0.00 46 1009.7
20260906225716 94 148 1.0 2.0 0.00 0.00 0.00 46 1009.9
20260906225213 94 142 0.0 2.0 0.00 0.00 0.00 46 1009.7
20260906224708 95 196 1.0 3.0 0.00 0.00 0.00 45 1009.7
20260906224204 95 154 0.0 2.0 0.00 0.00 0.00 45 1009.9
20260906223701 94 168 1.0 3.0 0.00 0.00 0.00 45 1009.8
20260906223200 94 148 1.0 1.0 0.00 0.00 0.00 45 1009.8
20260906222659 95 164 0.0 3.0 0.00 0.00 0.00 43 1009.7
20260906222158 96 157 0.0 2.0 0.00 0.00 0.00 41 1009.7
20260906221656 96 166 1.0 2.0 0.00 0.00 0.00 39 1010.0
20260906221150 96 160 0.0 1.0 0.00 0.00 0.00 40 1009.8
20260906220646 97 224 1.0 3.0 0.00 0.00 0.00 38 1010.0
20260906220141 98 213 0.0 1.0 0.00 0.00 0.00 38 1009.9
20260906215640 97 147 0.0 2.0 0.00 0.00 0.00 38 1010.1
20260906215139 99 154 2.0 3.0 0.00 0.00 0.00 37 1010.2
20260906214638 98 269 0.0 0.0 0.00 0.00 0.00 38 1010.2
20260906214132 97 140 1.0 2.0 0.00 0.00 0.00 39 1010.2
20260906213632 96 2 0.0 1.0 0.00 0.00 0.00 40 1010.0
20260906213126 96 352 0.0 2.0 0.00 0.00 0.00 40 1010.3
20260906212624 96 50 0.0 0.0 0.00 0.00 0.00 40 1010.5
20260906212120 96 117 0.0 1.0 0.00 0.00 0.00 40 1010.3
20260906211619 96 150 1.0 3.0 0.00 0.00 0.00 40 1010.7
20260906211114 97 206 1.0 3.0 0.00 0.00 0.00 40 1010.5
20260906210610 98 31 2.0 3.0 0.00 0.00 0.00 39 1010.7
20260906210105 98 219 1.0 2.0 0.00 0.00 0.00 39 1010.8
20260906205600 97 230 0.0 2.0 0.00 0.00 0.00 39 1011.1
20260906205056 98 153 3.0 3.0 0.00 0.00 0.00 38 1011.1
20260906204555 98 223 5.0 5.0 0.00 0.00 0.00 38 1010.7
20260906204050 98 218 3.0 7.0 0.00 0.00 0.00 39 1011.1
20260906203549 97 221 1.0 3.0 0.00 0.00 0.00 39 1011.1
20260906203045 96 226 2.0 2.0 0.00 0.00 0.00 40 1011.2
20260906202541 96 154 0.0 2.0 0.00 0.00 0.00 41 1011.2
20260906202036 96 160 0.0 3.0 0.00 0.00 0.00 40 1011.4
20260906201536 97 148 2.0 2.0 0.00 0.00 0.00 39 1011.2
20260906201036 97 255 0.0 0.0 0.00 0.00 0.00 39 1011.3
20260906200532 98 249 2.0 3.0 0.00 0.00 0.00 40 1011.3
20260906200028 97 26 0.0 1.0 0.00 0.00 0.00 40 1011.3
20260906195523 97 193 0.0 2.0 0.00 0.00 0.00 40 1011.4
20260906195019 96 156 1.0 3.0 0.00 0.00 0.00 42 1011.5
20260906194515 96 147 2.0 2.0 0.00 0.00 0.00 42 1011.5
20260906194010 95 133 1.0 3.0 0.00 0.00 0.00 43 1011.5
20260906193510 96 146 1.0 2.0 0.00 0.00 0.00 42 1011.7
20260906193005 95 241 2.0 2.0 0.00 0.00 0.00 44 1011.8
20260906192500 94 75 0.0 1.0 0.00 0.00 0.00 45 1011.8
20260906191959 94 356 0.0 2.0 0.00 0.00 0.00 44 1011.8
20260906191454 95 168 0.0 3.0 0.00 0.00 0.00 45 1012.0
20260906190954 96 233 0.0 3.0 0.00 0.00 0.00 44 1012.1
20260906190453 98 166 0.0 2.0 0.00 0.00 0.00 41 1012.2
20260906185948 98 259 1.0 2.0 0.00 0.00 0.00 40 1012.2
20260906185447 97 151 2.0 2.0 0.00 0.00 0.00 41 1012.1
20260906184946 96 229 3.0 3.0 0.00 0.00 0.00 42 1012.0
20260906184442 96 193 0.0 3.0 0.00 0.00 0.00 42 1012.1
20260906183937 96 202 2.0 2.0 0.00 0.00 0.00 43 1012.1
20260906183433 96 130 1.0 2.0 0.00 0.00 0.00 43 1012.3
20260906182928 95 104 1.0 3.0 0.00 0.00 0.00 43 1012.1
20260906182424 96 248 0.0 2.0 0.00 0.00 0.00 46 1012.4
20260906181920 95 293 0.0 3.0 0.00 0.00 0.00 42 1012.4
20260906181415 95 215 0.0 2.0 0.00 0.00 0.00 40 1012.7
20260906180911 94 5 0.0 2.0 0.00 0.00 0.00 40 1012.8
20260906180405 94 322 0.0 3.0 0.00 0.00 0.00 41 1012.8
20260906175903 94 248 2.0 5.0 0.00 0.00 0.00 42 1012.8
20260906175358 93 214 2.0 3.0 0.00 0.00 0.00 45 1012.9
20260906174857 94 221 2.0 4.0 0.00 0.00 0.00 43 1013.1
20260906174356 94 34 0.0 1.0 0.00 0.00 0.00 42 1013.2
20260906173851 93 210 2.0 4.0 0.00 0.00 0.00 44 1013.1
20260906173347 92 221 0.0 3.0 0.00 0.00 0.00 46 1013.3
20260906172846 91 142 2.0 4.0 0.00 0.00 0.00 47 1013.5
20260906172342 91 156 2.0 6.0 0.00 0.00 0.00 49 1013.6
20260906171838 91 206 2.0 4.0 0.00 0.00 0.00 48 1013.8
20260906171338 90 236 3.0 3.0 0.00 0.00 0.00 48 1013.8
20260906170833 90 221 2.0 2.0 0.00 0.00 0.00 47 1013.9
20260906170329 89 165 0.0 4.0 0.00 0.00 0.00 50 1014.0
20260906165825 88 222 2.0 4.0 0.00 0.00 0.00 50 1013.9
20260906165324 87 138 2.0 4.0 0.00 0.00 0.00 53 1014.2
20260906164820 87 132 2.0 2.0 0.00 0.00 0.00 65 1014.2
20260906164319 86 138 0.0 2.0 0.00 0.00 0.00 67 1014.3
20260906163815 86 141 2.0 2.0 0.00 0.00 0.00 67 1014.1
20260906163311 85 154 0.0 2.0 0.00 0.00 0.00 66 1014.2
20260906162809 85 145 0.0 2.0 0.00 0.00 0.00 67 1014.1
20260906162308 86 89 0.0 1.0 0.00 0.00 0.00 67 1014.0
20260906161803 86 117 0.0 2.0 0.00 0.00 0.00 67 1014.1
20260906161302 86 142 0.0 2.0 0.00 0.00 0.00 67 1014.0
20260906160801 85 116 0.0 2.0 0.00 0.00 0.00 68 1013.9
20260906160255 85 176 0.0 2.0 0.00 0.00 0.00 67 1013.9
20260906155753 85 202 0.0 1.0 0.00 0.00 0.00 69 1014.2
20260906155248 85 205 0.0 0.0 0.00 0.00 0.00 69 1013.9
20260906154743 85 133 0.0 1.0 0.00 0.00 0.00 69 1013.9
20260906154238 85 147 0.0 1.0 0.00 0.00 0.00 69 1013.9
20260906153737 85 180 0.0 0.0 0.00 0.00 0.00 69 1013.7
20260906153231 85 174 0.0 2.0 0.00 0.00 0.00 69 1013.7
20260906152721 85 142 0.0 1.0 0.00 0.00 0.00 69 1013.7
20260906152220 85 76 0.0 0.0 0.00 0.00 0.00 69 1013.7
20260906151715 85 212 0.0 0.0 0.00 0.00 0.00 70 1013.5
20260906151211 85 205 0.0 0.0 0.00 0.00 0.00 70 1013.4
20260906150706 84 339 0.0 0.0 0.00 0.00 0.00 71 1013.6
20260906150201 84 148 0.0 0.0 0.00 0.00 0.00 72 1013.5
20260906145700 84 157 0.0 2.0 0.00 0.00 0.00 71 1013.2
20260906145155 84 142 0.0 2.0 0.00 0.00 0.00 72 1013.4
20260906144654 84 75 0.0 0.0 0.00 0.00 0.00 72 1013.3
20260906144149 84 333 0.0 1.0 0.00 0.00 0.00 72 1013.3
20260906143648 84 53 0.0 1.0 0.00 0.00 0.00 72 1013.2
20260906143146 83 147 0.0 0.0 0.00 0.00 0.00 73 1013.2
20260906142645 83 135 0.0 0.0 0.00 0.00 0.00 73 1013.4
20260906142140 83 269 0.0 2.0 0.00 0.00 0.00 73 1013.3
20260906141639 83 147 0.0 2.0 0.00 0.00 0.00 73 1013.2
20260906141135 83 27 0.0 1.0 0.00 0.00 0.00 74 1013.4
20260906140633 83 106 0.0 1.0 0.00 0.00 0.00 74 1013.2
20260906140129 83 44 0.0 0.0 0.00 0.00 0.00 74 1013.1
20260906135626 82 57 0.0 0.0 0.00 0.00 0.00 75 1013.2
20260906135122 82 93 0.0 1.0 0.00 0.00 0.00 75 1013.0
20260906134617 82 80 1.0 2.0 0.00 0.00 0.00 76 1013.0
20260906134112 82 286 0.0 1.0 0.00 0.00 0.00 76 1013.1
20260906133608 82 58 0.0 1.0 0.00 0.00 0.00 76 1013.1
20260906133103 81 144 0.0 2.0 0.00 0.00 0.00 76 1012.9
20260906132558 81 357 1.0 2.0 0.00 0.00 0.00 77 1013.0
20260906132053 81 359 0.0 2.0 0.00 0.00 0.00 77 1012.8
20260906131549 81 62 0.0 1.0 0.00 0.00 0.00 77 1012.7
20260906131044 80 228 0.0 2.0 0.00 0.00 0.00 78 1012.8
20260906130543 80 150 1.0 2.0 0.00 0.00 0.00 79 1012.7
20260906130039 80 164 1.0 1.0 0.00 0.00 0.00 79 1012.4
20260906125536 79 126 0.0 1.0 0.00 0.00 0.00 80 1012.5
20260906125036 78 187 0.0 2.0 0.00 0.00 0.00 81 1012.4
20260906124532 78 136 1.0 2.0 0.00 0.00 0.00 81 1012.1
20260906124027 78 157 0.0 1.0 0.00 0.00 0.00 81 1012.4
20260906123526 78 98 0.0 1.0 0.00 0.00 0.00 81 1011.9
20260906123022 78 160 0.0 0.0 0.00 0.00 0.00 81 1012.1
20260906122521 77 89 0.0 0.0 0.00 0.00 0.00 81 1012.1
20260906122017 77 129 1.0 2.0 0.00 0.00 0.00 81 1012.0
20260906121513 77 268 1.0 1.0 0.00 0.00 0.00 81 1011.8
20260906121010 77 104 0.0 1.0 0.00 0.00 0.00 81 1011.9
20260906120510 77 28 1.0 1.0 0.00 0.00 0.00 81 1011.7
20260906120007 77 93 0.0 1.0 0.00 0.00 0.00 82 1011.5
20260906115502 77 34 0.0 0.0 0.00 0.00 0.00 81 1011.4
20260906115001 77 58 0.0 1.0 0.00 0.00 0.00 81 1011.4
20260906114456 77 54 0.0 1.0 0.00 0.00 0.00 81 1011.6
20260906113953 77 66 0.0 0.0 0.00 0.00 0.00 81 1011.2
20260906113451 77 49 0.0 0.0 0.00 0.00 0.00 80 1011.4
20260906112946 78 37 0.0 0.0 0.00 0.00 0.00 80 1011.3
20260906112442 78 61 1.0 1.0 0.00 0.00 0.00 79 1011.2
20260906111938 78 138 0.0 1.0 0.00 0.00 0.00 79 1011.3
20260906111437 78 46 0.0 1.0 0.00 0.00 0.00 79 1011.0
20260906110931 79 26 1.0 1.0 0.00 0.00 0.00 78 1011.2
20260906110427 79 23 1.0 1.0 0.00 0.00 0.00 78 1011.3
20260906105926 79 154 0.0 0.0 0.00 0.00 0.00 77 1011.1
20260906105422 79 116 0.0 2.0 0.00 0.00 0.00 77 1011.1
20260906104918 80 216 0.0 0.0 0.00 0.00 0.00 76 1011.2
20260906104416 80 89 0.0 1.0 0.00 0.00 0.00 76 1011.2
20260906103915 80 129 0.0 0.0 0.00 0.00 0.00 76 1010.8
20260906103414 80 129 0.0 0.0 0.00 0.00 0.00 75 1011.0
20260906102910 80 129 0.0 0.0 0.00 0.00 0.00 75 1010.8
20260906102408 81 129 0.0 0.0 0.00 0.00 0.00 75 1011.0
20260906101904 81 129 0.0 0.0 0.00 0.00 0.00 74 1010.8
20260906101359 81 113 0.0 0.0 0.00 0.00 0.00 74 1010.8
20260906100854 81 124 0.0 0.0 0.00 0.00 0.00 74 1010.7
20260906100353 81 103 0.0 0.0 0.00 0.00 0.00 74 1010.8
20260906095848 81 205 0.0 0.0 0.00 0.00 0.00 73 1010.5
20260906095344 81 205 0.0 0.0 0.00 0.00 0.00 73 1010.6
20260906094843 81 124 0.0 1.0 0.00 0.00 0.00 73 1010.7
20260906094339 81 121 1.0 1.0 0.00 0.00 0.00 73 1010.8
20260906093835 82 154 0.0 2.0 0.00 0.00 0.00 72 1010.5
20260906093331 82 129 0.0 1.0 0.00 0.00 0.00 72 1010.5
20260906092826 82 142 0.0 2.0 0.00 0.00 0.00 72 1010.7
20260906092325 82 152 1.0 3.0 0.00 0.00 0.00 72 1010.6
20260906091821 82 169 1.0 2.0 0.00 0.00 0.00 71 1010.5
20260906091317 82 164 1.0 2.0 0.00 0.00 0.00 71 1010.6
20260906090813 82 150 2.0 2.0 0.00 0.00 0.00 71 1010.7
20260906090312 82 158 1.0 3.0 0.00 0.00 0.00 71 1010.7
20260906085813 82 195 1.0 2.0 0.00 0.00 0.00 72 1010.8
20260906085311 82 185 0.0 1.0 0.00 0.00 0.00 72 1010.8
20260906084807 82 129 0.0 1.0 0.00 0.00 0.00 72 1010.7
20260906084306 82 131 0.0 2.0 0.00 0.00 0.00 72 1010.8
20260906083801 83 138 1.0 2.0 0.00 0.00 0.00 72 1010.6
20260906083257 83 193 0.0 1.0 0.00 0.00 0.00 71 1010.6
20260906082757 83 212 0.0 2.0 0.00 0.00 0.00 71 1010.8
20260906082252 83 155 2.0 2.0 0.00 0.00 0.00 71 1010.7
20260906081748 83 187 1.0 3.0 0.00 0.00 0.00 71 1010.7
20260906081243 83 148 2.0 2.0 0.00 0.00 0.00 71 1011.0
20260906080739 83 126 1.0 2.0 0.00 0.00 0.00 71 1010.8
20260906080236 83 203 1.0 1.0 0.00 0.00 0.00 70 1010.7
20260906075735 84 124 0.0 1.0 0.00 0.00 0.00 70 1010.8
20260906075236 84 137 2.0 3.0 0.00 0.00 0.00 70 1011.0
20260906074731 84 130 1.0 2.0 0.00 0.00 0.00 70 1011.1
20260906074230 84 171 1.0 2.0 0.00 0.00 0.00 70 1011.0
20260906073730 84 156 0.0 3.0 0.00 0.00 0.00 70 1011.2
20260906073225 84 137 2.0 3.0 0.00 0.00 0.00 70 1011.2
20260906072721 84 195 1.0 2.0 0.00 0.00 0.00 70 1011.2
20260906072216 84 132 1.0 3.0 0.00 0.00 0.00 70 1011.3
20260906071712 84 156 0.0 1.0 0.00 0.00 0.00 70 1011.3
20260906071212 84 160 0.0 2.0 0.00 0.00 0.00 70 1011.6
20260906070709 84 180 0.0 3.0 0.00 0.00 0.00 70 1011.4
20260906070204 84 168 0.0 2.0 0.00 0.00 0.00 70 1011.5
20260906065703 84 201 1.0 2.0 0.00 0.00 0.00 70 1011.7
20260906065159 84 195 1.0 2.0 0.00 0.00 0.00 70 1011.6
20260906064654 83 161 1.0 2.0 0.00 0.00 0.00 71 1011.6
20260906064150 83 110 0.0 3.0 0.00 0.00 0.00 71 1011.6
20260906063645 83 135 0.0 2.0 0.00 0.00 0.00 72 1011.6
20260906063140 83 117 0.0 0.0 0.00 0.00 0.00 72 1011.6
20260906062636 83 129 0.0 0.0 0.00 0.00 0.00 72 1011.8
20260906062135 83 129 0.0 0.0 0.00 0.00 0.00 72 1011.7
20260906061631 83 142 0.0 0.0 0.00 0.00 0.00 72 1011.7
20260906061131 83 129 0.0 0.0 0.00 0.00 0.00 72 1011.5
20260906060628 83 141 0.0 1.0 0.00 0.00 0.00 72 1011.7
20260906060125 83 135 0.0 1.0 0.00 0.00 0.00 71 1011.9
20260906055620 83 142 0.0 0.0 0.00 0.00 0.00 71 1012.0
20260906055115 83 142 0.0 0.0 0.00 0.00 0.00 71 1012.0
20260906054610 83 117 0.0 0.0 0.00 0.00 0.00 70 1012.0
20260906054105 83 117 0.0 0.0 0.00 0.00 0.00 70 1011.8
20260906053602 84 117 0.0 0.0 0.00 0.00 0.00 70 1011.7
20260906053057 84 124 0.0 2.0 0.00 0.00 0.00 70 1011.6
20260906052552 84 134 0.0 2.0 0.00 0.00 0.00 70 1011.8
20260906052049 84 141 0.0 2.0 0.00 0.00 0.00 70 1011.7
20260906051545 84 155 1.0 2.0 0.00 0.00 0.00 70 1011.8
20260906051040 84 129 0.0 1.0 0.00 0.00 0.00 70 1011.9
20260906050535 84 151 1.0 2.0 0.00 0.00 0.00 70 1012.0
20260906050030 84 140 0.0 1.0 0.00 0.00 0.00 69 1012.2
20260906045528 84 160 0.0 0.0 0.00 0.00 0.00 69 1012.2
20260906045024 84 104 0.0 2.0 0.00 0.00 0.00 69 1012.2
20260906044520 84 148 0.0 1.0 0.00 0.00 0.00 69 1012.1
20260906044015 84 145 0.0 1.0 0.00 0.00 0.00 68 1011.9
20260906043511 84 128 0.0 2.0 0.00 0.00 0.00 68 1012.0
20260906043007 84 118 0.0 2.0 0.00 0.00 0.00 67 1011.9
20260906042505 84 141 0.0 1.0 0.00 0.00 0.00 67 1012.0
20260906042005 84 142 0.0 0.0 0.00 0.00 0.00 67 1011.9
20260906041502 84 164 0.0 0.0 0.00 0.00 0.00 66 1011.8
20260906041001 84 89 0.0 2.0 0.00 0.00 0.00 65 1011.7
20260906040456 85 130 0.0 1.0 0.00 0.00 0.00 65 1011.7
20260906035951 85 129 0.0 1.0 0.00 0.00 0.00 64 1011.8
20260906035447 85 142 0.0 0.0 0.00 0.00 0.00 64 1012.0
20260906034943 85 67 0.0 1.0 0.00 0.00 0.00 63 1011.9
20260906034443 85 205 0.0 1.0 0.00 0.00 0.00 63 1011.9
20260906033938 86 142 0.0 1.0 0.00 0.00 0.00 62 1012.1
20260906033438 86 293 0.0 1.0 0.00 0.00 0.00 62 1012.1
20260906032934 86 124 1.0 2.0 0.00 0.00 0.00 62 1012.0
20260906032431 86 50 1.0 2.0 0.00 0.00 0.00 61 1011.9
20260906031930 86 167 0.0 2.0 0.00 0.00 0.00 60 1011.7
20260906031426 86 147 0.0 2.0 0.00 0.00 0.00 60 1011.7
20260906030921 87 117 0.0 1.0 0.00 0.00 0.00 59 1011.6
20260906030416 87 102 0.0 2.0 0.00 0.00 0.00 59 1011.6
20260906025911 87 138 1.0 1.0 0.00 0.00 0.00 58 1011.5
20260906025410 87 60 0.0 1.0 0.00 0.00 0.00 58 1011.3
20260906024909 87 82 0.0 2.0 0.00 0.00 0.00 57 1011.4
20260906024409 87 253 0.0 2.0 0.00 0.00 0.00 57 1011.1
20260906023904 88 135 0.0 1.0 0.00 0.00 0.00 56 1011.1
20260906023401 88 218 0.0 2.0 0.00 0.00 0.00 55 1011.1
20260906022900 88 113 0.0 2.0 0.00 0.00 0.00 54 1010.7
20260906022355 88 89 0.0 2.0 0.00 0.00 0.00 53 1010.6
20260906021851 89 142 0.0 2.0 0.00 0.00 0.00 52 1010.6
20260906021350 89 269 0.0 2.0 0.00 0.00 0.00 52 1010.4
20260906020845 89 321 0.0 1.0 0.00 0.00 0.00 52 1010.3
20260906020344 89 269 0.0 2.0 0.00 0.00 0.00 51 1010.2
20260906015839 89 284 0.0 0.0 0.00 0.00 0.00 51 1010.2
20260906015339 89 212 0.0 1.0 0.00 0.00 0.00 51 1009.9
20260906014839 90 174 2.0 2.0 0.00 0.00 0.00 50 1010.0
20260906014333 90 114 0.0 1.0 0.00 0.00 0.00 51 1009.8
20260906013830 90 89 0.0 1.0 0.00 0.00 0.00 50 1009.9
20260906013325 91 180 0.0 1.0 0.00 0.00 0.00 50 1009.9
20260906012820 91 15 0.0 2.0 0.00 0.00 0.00 49 1009.8
20260906012320 91 303 0.0 3.0 0.00 0.00 0.00 49 1009.8
20260906011815 91 278 0.0 2.0 0.00 0.00 0.00 49 1009.7
20260906011315 91 269 0.0 1.0 0.00 0.00 0.00 49 1009.4
20260906010811 92 256 0.0 1.0 0.00 0.00 0.00 49 1009.8
20260906010307 92 19 0.0 3.0 0.00 0.00 0.00 48 1009.4
20260906005802 92 137 0.0 1.0 0.00 0.00 0.00 48 1009.7
20260906005301 92 217 0.0 1.0 0.00 0.00 0.00 48 1009.5
20260906004800 93 336 0.0 1.0 0.00 0.00 0.00 48 1009.6
20260906004256 93 50 0.0 2.0 0.00 0.00 0.00 47 1009.6
20260906003755 93 145 2.0 2.0 0.00 0.00 0.00 47 1009.5
20260906003251 94 36 1.0 2.0 0.00 0.00 0.00 46 1009.5
20260906002746 94 35 0.0 2.0 0.00 0.00 0.00 46 1009.5
20260906002246 95 313 1.0 3.0 0.00 0.00 0.00 45 1009.4
20260906001742 95 124 0.0 1.0 0.00 0.00 0.00 45 1009.4
20260906001237 95 339 0.0 2.0 0.00 0.00 0.00 45 1009.4
20260906000732 96 80 2.0 2.0 0.00 0.00 0.00 43 1009.3
20260906000227 96 138 1.0 2.0 0.00 0.00 0.00 42 1009.4
20260905235727 97 76 0.0 2.0 0.00 0.00 0.00 42 1009.1
20260905235221 97 316 0.0 2.0 0.00 0.00 0.00 42 1009.2
20260905234717 98 29 0.0 2.0 0.00 0.00 0.00 39 1009.3
20260905234212 98 359 0.0 2.0 0.00 0.00 0.00 36 1009.1
20260905233713 98 315 0.0 1.0 0.00 0.00 0.00 36 1009.1
20260905233212 98 37 0.0 1.0 0.00 0.00 0.00 36 1009.3
20260905232707 98 205 0.0 1.0 0.00 0.00 0.00 36 1009.2